sat.trackr.live / text

‹ back to catalog

FLOCK 4H-10

NORAD 66713 · 2025-276AZ

PAYLOAD ACTIVE UNKNOWN

§ Identity

Operator
Country
US
Launch date
2025-11-28
Launch site
AFWTR
Launch vehicle
Mass (kg)
RCS (m²)

Purposes: earth_obs

External: N2YO · Heavens-Above · Gunter

§ Orbital elements

Epoch: 2026-05-25T02:32:17.766816Z

Period
94.77 min
Inclination
97.4194°
Eccentricity
0.0006165
Mean motion
15.19523297 rev/d
Perigee alt
503.0 km
Apogee alt
511.5 km
Semi-major
6,885.4 km
B*
2.6074e-4
RAAN
218.9820°
Arg perigee
88.2806°
Mean anomaly
271.9135°
Rev number
2,691

§ Raw data

FLOCK 4H-101 66713U 25276AZ  26145.10576119  .00005474  00000+0  26074-3 0  99942 66713  97.4194 218.9820 0006165  88.2806 271.9135 15.19523297 26919

JSON: /api/v1/satellites/66713 · /tle

For live sub-satellite position, see the globe view (requires WebGL).

§ Visibility from observer

Set your observer location to see the next 7 days of passes ≥ 10°. The values pass through the URL so the page stays shareable.

No JS? Fill the form by hand. The geolocation button needs JavaScript.